Погода в Балхаше

Хотите узнать прогноз погоды в Балхаше? Тогда Вам сюда: Погода в Балхаше

Поиск расширенной информации на нашем сайте:

Полезная информация:

Новости сайта



02.01.2020
Опубликован Долгосрочный прогноз погоды по городам России и ближнего зарубежья на январь 2020 года.
Карты: Прогноз на январь и февраль 2020 года, Сравнение прогнозируемой аномалии приземной температуры воздуха на январь 2020 года по разным моделям.




Погода в Балхаше - сегодня

Время (UTC), дата Ветер
(°,м/с) 
Видим.   Явления Облачность Т
(°С)
Тd
(°С)
f(%) Тe
(°С)
Pmin
(гПа)
dP
(гПа)
Po
(мм)
O2
(г/м3)
Тmin Tmax R s Состояние
почвы
06 05.04.20 170 (Ю) 20000 м    10/0 верхняя 
[Ci sp]
+12.7 +2.5 50 +14  1017.8  -0.7  732  282  +5.9         
09 05.04.20 200 (Ю) 20000 м    10/0 средняя, верхняя 
[Ac trans|Ci sp]
+16.2 +2.7 40 +17  1015.9  -1.3  731  278           
12 05.04.20 220 (ЮЗ) 20000 м    10/3 1000 м средняя, верхняя 
[Sc|Ac lent|Ci sp]
+9.1 +3.4 67 +9  1016.6  -0.4  731  284           
15 05.04.20 250 (З) 10 км    10/0 верхняя 
[Ci sp]
+9 +3.3 67 +9  1017.5  0.9  732  285    +17.7       
18 05.04.20 290 (З) 10 км    10/0 средняя, верхняя 
[Ac lent|Ci sp]
+8.8 +4.8 76 +10  1017.6  0.1  732  285    +17.7       
21 05.04.20 350 (С) 10 км    6/0 верхняя 
[Ci sp]
+7.5 +2.8 72 +8  1018.1  0.2  732  287           
00 06.04.20 тихо ()   10 км    9/0 верхняя 
[Ci sp]
+5.9 +2.5 79 +6  1018.6  0.3  732  288           
03 06.04.20 тихо ()   20000 м    1/0 верхняя 
[Ci sp]
+9 +3 66 +9  1019.8  1.6  733  286           
06 06.04.20 210 (ЮЗ) 20000 м    4/0 верхняя 
[Ci fib]
+8.9 +3.9 71 +8  1019.6  -0.2  733  285  +4.5         
09 06.04.20 210 (ЮЗ) 20000 м    1/0 верхняя 
[Ci fib]
+9.3 +2.8 64 +8  1018.4  -1.1  732  285           
12 06.04.20 210 (ЮЗ) 10 км    4/0 верхняя 
[Ci fib]
+10 +3.4 63 +10  1017.9  -0.4  732  284           
15 06.04.20 230 (ЮЗ) 10 км    8/0 верхняя 
[Ci fib]
+9.7 +3.3 64 +11  1018  0.1  732  284    +11.5       
18 06.04.20 090 (В) 10 км    8/0 верхняя 
[Ci fib]
+9.6 +2.4 61 +11  1016.6  -1.4  731  284    +11.5       
21 06.04.20 050 (СВ) 10 км    10/0 верхняя 
[Cs]
+6.1 +0.6 68 +5  1015.9  -1.2  730  288           
00 07.04.20 080 (В) 10 км    10/0 верхняя 
[Ci sp]
+4.5 +2 84 +3  1015.8  -0.3  730  289           
03 07.04.20 120 (ЮВ) 20000 м    10/0 верхняя 
[Ci sp]
+10.1 +5.8 75 +10  1014.6  -0.3  730  283           
06 07.04.20 170 (Ю) 20000 м    6/3 1500 м верхняя 
[Sc|Ci sp]
+12.2 +7.5 73 +11  1012.9  -1.3  729  280  +3.7         
09 07.04.20 200 (Ю) 20000 м    9/4 1000 м средняя, верхняя 
[Sc diur, vesp|Ac trans|Ci sp]
+13.7 +5.6 58 +13  1010.5  -2.1  727  278           
12 07.04.20 230 (ЮЗ) 10  4000 м  слаб. ливневой дождь  10/10 600 м кучево-дожд. 
[Cb cap]
+9.5 +5.9 78 +7  1011.2  727  282           
15 07.04.20 300 (СЗ) 10 км  {ливн. осадки}  10/10 1000 м 
[Sc]
+12.3 +2.9 53 +11  1015.5  4.5  731  281    +16       
18 07.04.20 300 (СЗ) 10 км  {ливн. осадки}  8/0 средняя, верхняя 
[Ac trans|Ci fib]
+8.5 -4.2 40 +7  1019.4  3.2  733  287    +1.6  0.0     
21 07.04.20 320 (СЗ) 10 км    10/0 средняя 
[As trans]
+6.7 -5.6 41 +5  1021.3  1.5  734  289           
00 08.04.20 310 (СЗ) 10 км    10/0 средняя 
[As trans]
+5.6 -6.2 42 +5  1023.3  1.8  735  291           
03 08.04.20 310 (СЗ) 10 км    10/0 средняя 
[As op]
+5.5 -5.9 44 +5  1024.6  1.2  736  291           
06 08.04.20 220 (ЮЗ) 20000 м    10/0 средняя 
[As op]
+5.9 -1.6 59 +5  1024.3  -0.2  736  291  +5.2         
Время (UTC), дата Ветер
(°,м/с) 
Видим.   Явления Облачность Т
(°С)
Тd
(°С)
f(%) Тe
(°С)
Pmin
(гПа)
dP
(гПа)
Po
(мм)
O2
(г/м3)
Тmin Tmax R s Состояние
почвы

Для получения пояснительной информации подведите курсор к названию столбца.

ПОГОДА в Балхаше - архив

Всё, что Вы хотите узнать о погоде в Балхаше - удобно и подробно!

Выберите нужную дату (начиная с 1 января 2019* года) и нажмите кнопку "Найти".
Будут отображены архивные сводки погоды по пункту Балхаш, начиная с указанной даты.


Отображать данные в формате CSV (для использования в таблицах Excel)


Внимание! Наш архив погоды предназначен исключительно для личного некоммерческого использования в познавательных целях. Если Вам необходимы официальные справки о состоянии погоды (для производственных, юридических, коммерческих и т.п. целей), обращайтесь в органы Росгидромета.

*Примечание: данная дата относится к архиву по метеостанциям СССР (Россия, СНГ, Балтия).
Архив по метеостанциям Зарубежной Европы и Азии (кроме Китая) хранится 10 дней, по другим регионам земного шара (Китай, Африка, Америка, Австралия, Океания) - 1 день.

Балхаш - район местоположения метеостанции


Название, широта, долгота, высота метеостанции:
Балхаш 46.8°ш. 75.1°д. 350 м над ур. моря [Казахстан]

Дополнительная информация

В oтличие oт бoльшинства пoгoдных сайтoв мы публикуем пoдрoбную метеoинфoрмацию в детальнoм прoфессиoнальнoм фoрмате.

Характеристики температуры и влажнoсти вoздуха измеряются на высoте 2 м в тени вдали oт зданий и деревьев.
Скoрoсть ветра измеряется на высoте 10 м (на урoвне рoста челoвека скoрoсть ветра ниже в 1.5-2 раза). Если метеoстанция нахoдится в гoрoде или в лесу, тo скoрoсть ветра занижена на 2-4 м/с пo сравнению с oткрытым местoм. Скoрoсть ветра над акватoриями крупных рек и oзёр, а также на вершинах хoлмoв на 2-5 м/с выше, чем в oбычных услoвиях.
Атмoсфернoе давление в разных тoчках местнoсти мoжет значительнo oтличаться oт давления на метеoстанции, в зависимoсти oт услoвий рельефа (при пoдъёме на 10 м давление пoнижается примернo на 1 мм рт.ст.).